Time,TemperatureF,DewpointF,PressureIn,WindDirection,WindDirectionDegrees,WindSpeedMPH,WindSpeedGustMPH,Humidity,HourlyPrecipIn,Conditions,Clouds,dailyrainin,SoftwareType,DateUTC
2013-07-08 00:01:00,70.5,59.6,29.09,WNW,292,1.3,4.0,68,0.00,,,0.00,WUHU216WMR100,2013-07-08 04:01:00,
2013-07-08 00:06:00,70.5,59.6,29.09,WNW,292,0.9,2.9,68,0.00,,,0.00,WUHU216WMR100,2013-07-08 04:06:00,
2013-07-08 00:11:00,70.3,59.0,29.09,WNW,292,0.0,2.9,67,0.00,,,0.00,WUHU216WMR100,2013-07-08 04:11:00,
2013-07-08 00:16:00,70.0,58.7,29.09,WNW,292,0.0,1.3,67,0.00,,,0.00,WUHU216WMR100,2013-07-08 04:16:00,
2013-07-08 00:21:00,69.8,58.9,29.09,WNW,292,0.0,1.3,68,0.00,,,0.00,WUHU216WMR100,2013-07-08 04:21:00,
2013-07-08 00:26:00,69.6,58.8,29.09,West,270,0.0,1.6,68,0.00,,,0.00,WUHU216WMR100,2013-07-08 04:26:00,
2013-07-08 00:31:00,69.4,58.6,29.09,WSW,240,1.1,2.2,68,0.00,,,0.00,WUHU216WMR100,2013-07-08 04:31:00,
2013-07-08 00:36:00,69.4,59.0,29.12,SSW,203,2.3,3.6,69,0.00,,,0.00,WUHU216WMR100,2013-07-08 04:36:00,
2013-07-08 00:41:00,69.3,58.5,29.12,South,180,1.6,4.0,68,0.00,,,0.00,WUHU216WMR100,2013-07-08 04:41:00,
2013-07-08 00:46:00,68.9,58.1,29.12,ESE,112,1.6,4.0,68,0.00,,,0.00,WUHU216WMR100,2013-07-08 04:46:00,
2013-07-08 00:52:00,68.5,57.7,29.09,ESE,112,0.0,2.7,68,0.00,,,0.00,WUHU216WMR100,2013-07-08 04:52:00,
2013-07-08 00:57:00,68.4,58.0,29.09,ESE,112,0.0,1.6,69,0.00,,,0.00,WUHU216WMR100,2013-07-08 04:57:00,
2013-07-08 01:02:00,68.0,57.6,29.09,ESE,112,0.0,0.0,69,0.00,,,0.00,WUHU216WMR100,2013-07-08 05:02:00,
2013-07-08 01:07:00,67.8,57.8,29.09,ESE,112,0.0,0.0,70,0.00,,,0.00,WUHU216WMR100,2013-07-08 05:07:00,
2013-07-08 01:12:00,67.6,57.6,29.09,ESE,112,0.0,0.0,70,0.00,,,0.00,WUHU216WMR100,2013-07-08 05:12:00,
2013-07-08 01:17:00,67.3,57.7,29.09,ESE,112,0.0,0.0,71,0.00,,,0.00,WUHU216WMR100,2013-07-08 05:17:00,
2013-07-08 01:22:00,66.9,57.3,29.09,ESE,112,0.0,0.0,71,0.00,,,0.00,WUHU216WMR100,2013-07-08 05:22:00,
2013-07-08 01:27:00,66.7,57.2,29.09,ESE,112,0.0,0.0,71,0.00,,,0.00,WUHU216WMR100,2013-07-08 05:27:00,
2013-07-08 01:32:00,66.7,57.5,29.09,SSE,157,1.6,2.0,72,0.00,,,0.00,WUHU216WMR100,2013-07-08 05:32:00,
2013-07-08 01:37:00,66.6,58.2,29.09,SSE,157,1.3,2.2,74,0.00,,,0.00,WUHU216WMR100,2013-07-08 05:37:00,
2013-07-08 01:42:00,66.4,58.0,29.09,North,0,0.2,2.5,74,0.00,,,0.00,WUHU216WMR100,2013-07-08 05:42:00,
2013-07-08 01:47:00,66.4,58.4,29.09,North,0,1.6,2.7,75,0.00,,,0.00,WUHU216WMR100,2013-07-08 05:47:00,
2013-07-08 01:52:00,66.2,58.5,29.09,North,0,0.0,2.7,76,0.00,,,0.00,WUHU216WMR100,2013-07-08 05:52:00,
2013-07-08 01:57:00,66.0,58.3,29.09,SSW,202,0.0,2.5,76,0.00,,,0.00,WUHU216WMR100,2013-07-08 05:57:00,
2013-07-08 02:01:00,66.2,58.5,29.09,East,90,0.0,2.5,76,0.00,,,0.00,WUHU216WMR100,2013-07-08 06:01:00,
2013-07-08 02:06:00,66.2,58.5,29.12,SW,229,1.1,2.2,76,0.00,,,0.00,WUHU216WMR100,2013-07-08 06:06:00,
2013-07-08 02:11:00,66.2,58.5,29.12,ESE,112,1.1,2.5,76,0.00,,,0.00,WUHU216WMR100,2013-07-08 06:11:00,
2013-07-08 02:16:00,66.2,58.9,29.12,SE,135,1.2,2.5,77,0.00,,,0.00,WUHU216WMR100,2013-07-08 06:16:00,
2013-07-08 02:21:00,66.2,58.9,29.09,NNE,22,0.0,2.5,77,0.00,,,0.00,WUHU216WMR100,2013-07-08 06:21:00,
2013-07-08 02:26:00,66.0,58.3,29.09,NNE,22,0.0,2.5,76,0.00,,,0.00,WUHU216WMR100,2013-07-08 06:26:00,
2013-07-08 02:31:00,65.8,58.1,29.09,NNE,22,0.0,0.9,76,0.00,,,0.00,WUHU216WMR100,2013-07-08 06:31:00,
2013-07-08 02:36:00,65.7,58.4,29.09,NNE,22,0.0,0.0,77,0.00,,,0.00,WUHU216WMR100,2013-07-08 06:36:00,
2013-07-08 02:41:00,65.5,58.2,29.09,NNE,22,0.0,0.0,77,0.00,,,0.00,WUHU216WMR100,2013-07-08 06:41:00,
2013-07-08 02:46:00,65.3,58.0,29.09,NNE,22,0.0,0.0,77,0.00,,,0.00,WUHU216WMR100,2013-07-08 06:46:00,
2013-07-08 02:51:00,65.5,58.2,29.09,NNE,22,1.1,2.0,77,0.00,,,0.00,WUHU216WMR100,2013-07-08 06:51:00,
2013-07-08 02:56:00,65.5,58.5,29.09,NNE,22,0.3,2.0,78,0.00,,,0.00,WUHU216WMR100,2013-07-08 06:56:00,
2013-07-08 03:01:00,65.3,58.4,29.09,NNE,22,0.0,1.6,78,0.00,,,0.00,WUHU216WMR100,2013-07-08 07:01:00,
2013-07-08 03:06:00,64.9,58.0,29.09,NNE,22,0.0,0.0,78,0.00,,,0.00,WUHU216WMR100,2013-07-08 07:06:00,
2013-07-08 03:11:00,64.8,58.2,29.09,NNE,22,0.0,0.0,79,0.00,,,0.00,WUHU216WMR100,2013-07-08 07:11:00,
2013-07-08 03:16:00,64.8,58.2,29.09,NNE,22,0.0,0.0,79,0.00,,,0.00,WUHU216WMR100,2013-07-08 07:16:00,
2013-07-08 03:21:00,64.6,58.0,29.09,NNE,22,0.0,0.0,79,0.00,,,0.00,WUHU216WMR100,2013-07-08 07:21:00,
2013-07-08 03:26:00,64.4,58.2,29.09,NNE,22,0.0,0.0,80,0.00,,,0.00,WUHU216WMR100,2013-07-08 07:26:00,
2013-07-08 03:31:00,64.4,58.2,29.09,NNE,22,0.0,1.6,80,0.00,,,0.00,WUHU216WMR100,2013-07-08 07:31:00,
2013-07-08 03:36:00,64.6,58.4,29.09,NNE,22,0.0,1.6,80,0.00,,,0.00,WUHU216WMR100,2013-07-08 07:36:00,
2013-07-08 03:41:00,64.6,58.4,29.09,NNE,22,0.0,0.9,80,0.00,,,0.00,WUHU216WMR100,2013-07-08 07:41:00,
2013-07-08 03:46:00,64.4,58.5,29.09,NNE,22,0.0,0.9,81,0.00,,,0.00,WUHU216WMR100,2013-07-08 07:46:00,
2013-07-08 03:51:00,64.4,58.5,29.09,NNE,22,0.9,1.6,81,0.00,,,0.00,WUHU216WMR100,2013-07-08 07:51:00,
2013-07-08 03:57:00,64.4,58.5,29.09,NNE,22,0.0,1.6,81,0.00,,,0.00,WUHU216WMR100,2013-07-08 07:57:00,
2013-07-08 04:02:00,64.4,58.8,29.09,NNE,22,0.0,1.6,82,0.00,,,0.00,WUHU216WMR100,2013-07-08 08:02:00,
2013-07-08 04:07:00,64.4,58.8,29.09,NNE,22,0.8,2.0,82,0.00,,,0.00,WUHU216WMR100,2013-07-08 08:07:00,
2013-07-08 04:12:00,64.2,58.6,29.09,NNE,22,1.3,2.0,82,0.00,,,0.00,WUHU216WMR100,2013-07-08 08:12:00,
2013-07-08 04:17:00,64.4,59.2,29.09,SSE,159,1.1,2.7,83,0.00,,,0.00,WUHU216WMR100,2013-07-08 08:17:00,
2013-07-08 04:22:00,64.2,59.0,29.09,SSE,157,0.0,2.7,83,0.00,,,0.00,WUHU216WMR100,2013-07-08 08:22:00,
2013-07-08 04:27:00,64.2,59.0,29.09,ESE,112,0.0,2.2,83,0.00,,,0.00,WUHU216WMR100,2013-07-08 08:27:00,
2013-07-08 04:32:00,64.0,58.8,29.09,ESE,112,0.0,1.6,83,0.00,,,0.00,WUHU216WMR100,2013-07-08 08:32:00,
2013-07-08 04:37:00,64.0,58.8,29.09,ESE,112,1.1,1.6,83,0.00,,,0.00,WUHU216WMR100,2013-07-08 08:37:00,
2013-07-08 04:42:00,63.9,58.7,29.09,ESE,112,0.0,1.6,83,0.00,,,0.00,WUHU216WMR100,2013-07-08 08:42:00,
2013-07-08 04:47:00,63.9,59.0,29.09,ESE,112,0.2,2.7,84,0.00,,,0.00,WUHU216WMR100,2013-07-08 08:47:00,
2013-07-08 04:52:00,63.7,58.8,29.09,ESE,112,0.0,2.7,84,0.00,,,0.00,WUHU216WMR100,2013-07-08 08:52:00,
2013-07-08 04:57:00,63.5,58.6,29.09,ESE,112,0.0,0.0,84,0.00,,,0.00,WUHU216WMR100,2013-07-08 08:57:00,
2013-07-08 05:02:00,63.5,58.9,29.09,ESE,112,0.0,0.0,85,0.00,,,0.00,WUHU216WMR100,2013-07-08 09:02:00,
2013-07-08 05:07:00,63.3,58.7,29.09,ESE,112,0.0,0.0,85,0.00,,,0.00,WUHU216WMR100,2013-07-08 09:07:00,
2013-07-08 05:12:00,63.1,58.5,29.09,ESE,112,0.0,0.0,85,0.00,,,0.00,WUHU216WMR100,2013-07-08 09:12:00,
2013-07-08 05:17:00,63.1,58.8,29.09,ESE,112,0.0,0.0,86,0.00,,,0.00,WUHU216WMR100,2013-07-08 09:17:00,
2013-07-08 05:22:00,63.1,58.8,29.09,ESE,112,0.0,0.0,86,0.00,,,0.00,WUHU216WMR100,2013-07-08 09:22:00,
2013-07-08 05:27:00,63.1,59.2,29.09,ESE,112,0.0,0.0,87,0.00,,,0.00,WUHU216WMR100,2013-07-08 09:27:00,
2013-07-08 05:32:00,63.0,59.1,29.09,ESE,112,0.0,0.0,87,0.00,,,0.00,WUHU216WMR100,2013-07-08 09:32:00,
2013-07-08 05:37:00,63.0,59.1,29.09,ESE,112,0.0,0.0,87,0.00,,,0.00,WUHU216WMR100,2013-07-08 09:37:00,
2013-07-08 05:42:00,63.0,59.1,29.09,ESE,112,0.0,0.0,87,0.00,,,0.00,WUHU216WMR100,2013-07-08 09:42:00,
2013-07-08 05:47:00,62.8,58.9,29.12,ESE,112,0.0,0.0,87,0.00,,,0.00,WUHU216WMR100,2013-07-08 09:47:00,
2013-07-08 05:52:00,63.0,59.4,29.12,ESE,112,0.0,0.0,88,0.00,,,0.00,WUHU216WMR100,2013-07-08 09:52:00,
2013-07-08 05:57:00,63.0,59.4,29.12,ESE,112,0.0,0.0,88,0.00,,,0.00,WUHU216WMR100,2013-07-08 09:57:00,
2013-07-08 06:02:00,63.0,59.4,29.12,SE,135,0.0,0.0,88,0.00,,,0.00,WUHU216WMR100,2013-07-08 10:02:00,
2013-07-08 06:07:00,63.0,59.4,29.12,ESE,112,0.0,0.0,88,0.00,,,0.00,WUHU216WMR100,2013-07-08 10:07:00,
2013-07-08 06:12:00,63.1,59.8,29.12,ESE,112,0.0,1.3,89,0.00,,,0.00,WUHU216WMR100,2013-07-08 10:12:00,
2013-07-08 06:17:00,63.1,59.8,29.12,ESE,112,0.0,1.3,89,0.00,,,0.00,WUHU216WMR100,2013-07-08 10:17:00,
2013-07-08 06:22:00,63.1,59.8,29.12,ESE,112,0.0,0.9,89,0.00,,,0.00,WUHU216WMR100,2013-07-08 10:22:00,
2013-07-08 06:27:00,63.3,60.0,29.12,ESE,112,0.0,0.9,89,0.00,,,0.00,WUHU216WMR100,2013-07-08 10:27:00,
2013-07-08 06:32:00,63.5,60.5,29.12,ESE,112,0.0,0.0,90,0.00,,,0.00,WUHU216WMR100,2013-07-08 10:32:00,
2013-07-08 06:37:00,64.0,61.0,29.12,ESE,112,0.0,0.0,90,0.00,,,0.00,WUHU216WMR100,2013-07-08 10:37:00,
2013-07-08 06:42:00,64.4,61.4,29.12,ESE,112,0.0,0.0,90,0.00,,,0.00,WUHU216WMR100,2013-07-08 10:42:00,
2013-07-08 06:47:00,64.8,61.8,29.12,ESE,112,0.0,0.0,90,0.00,,,0.00,WUHU216WMR100,2013-07-08 10:47:00,
2013-07-08 06:52:00,65.3,62.3,29.12,ESE,112,0.0,0.0,90,0.00,,,0.00,WUHU216WMR100,2013-07-08 10:52:00,
2013-07-08 06:57:00,65.7,62.7,29.12,ESE,112,0.0,0.0,90,0.00,,,0.00,WUHU216WMR100,2013-07-08 10:57:00,
2013-07-08 07:02:00,66.0,63.0,29.12,ESE,112,0.0,0.0,90,0.00,,,0.00,WUHU216WMR100,2013-07-08 11:02:00,
2013-07-08 07:07:00,66.6,63.2,29.12,ESE,112,0.0,1.1,89,0.00,,,0.00,WUHU216WMR100,2013-07-08 11:07:00,
2013-07-08 07:09:00,66.7,63.0,29.12,ESE,112,0.0,1.1,88,0.00,,,0.00,WUHU216WMR100,2013-07-08 11:09:00,
2013-07-08 07:15:00,67.1,63.1,29.12,ESE,112,0.6,2.2,87,0.00,,,0.00,WUHU216WMR100,2013-07-08 11:15:00,
2013-07-08 07:19:00,67.5,63.2,29.12,ESE,112,0.4,2.2,86,0.00,,,0.00,WUHU216WMR100,2013-07-08 11:19:00,
2013-07-08 07:23:00,67.8,63.1,29.12,WSW,247,0.6,2.2,85,0.00,,,0.00,WUHU216WMR100,2013-07-08 11:23:00,
2013-07-08 07:34:00,68.5,62.5,29.12,WNW,292,0.0,2.7,81,0.00,,,0.00,WUHU216WMR100,2013-07-08 11:34:00,
2013-07-08 07:39:00,69.1,62.7,29.12,WNW,292,1.3,2.7,80,0.00,,,0.00,WUHU216WMR100,2013-07-08 11:39:00,
2013-07-08 07:45:00,69.8,62.7,29.12,WNW,292,0.0,2.7,78,0.00,,,0.00,WUHU216WMR100,2013-07-08 11:45:00,
2013-07-08 07:50:00,70.3,62.9,29.12,WNW,292,1.1,1.3,77,0.00,,,0.00,WUHU216WMR100,2013-07-08 11:50:00,
2013-07-08 07:57:00,70.7,62.2,29.12,WNW,292,0.9,2.5,74,0.00,,,0.00,WUHU216WMR100,2013-07-08 11:57:00,
2013-07-08 08:02:00,71.6,62.6,29.12,WNW,292,0.4,2.5,73,0.00,,,0.00,WUHU216WMR100,2013-07-08 12:02:00,
2013-07-08 08:08:00,72.1,62.4,29.12,SSE,157,0.0,2.7,71,0.00,,,0.00,WUHU216WMR100,2013-07-08 12:08:00,
2013-07-08 08:13:00,72.5,62.3,29.12,West,270,0.9,2.7,70,0.00,,,0.00,WUHU216WMR100,2013-07-08 12:13:00,
2013-07-08 08:18:00,72.5,61.9,29.12,West,270,0.4,2.7,69,0.00,,,0.00,WUHU216WMR100,2013-07-08 12:18:00,
2013-07-08 08:22:00,73.0,61.6,29.12,WSW,246,1.8,2.9,67,0.00,,,0.00,WUHU216WMR100,2013-07-08 12:22:00,
2013-07-08 08:37:00,73.0,61.2,29.12,South,180,0.9,2.9,66,0.00,,,0.00,WUHU216WMR100,2013-07-08 12:37:00,
2013-07-08 08:43:00,74.3,61.5,29.12,East,90,0.4,2.9,64,0.00,,,0.00,WUHU216WMR100,2013-07-08 12:43:00,
2013-07-08 08:49:00,74.7,61.9,29.12,East,90,0.7,3.1,64,0.00,,,0.00,WUHU216WMR100,2013-07-08 12:49:00,
2013-07-08 08:54:00,74.8,61.6,29.12,West,270,1.2,2.5,63,0.00,,,0.00,WUHU216WMR100,2013-07-08 12:54:00,
2013-07-08 08:59:00,75.6,61.4,29.12,West,270,0.8,2.5,61,0.00,,,0.00,WUHU216WMR100,2013-07-08 12:59:00,
2013-07-08 09:04:00,76.1,61.9,29.15,West,270,1.5,2.9,61,0.00,,,0.00,WUHU216WMR100,2013-07-08 13:04:00,
2013-07-08 09:09:00,76.6,62.4,29.15,West,270,0.3,2.9,61,0.00,,,0.00,WUHU216WMR100,2013-07-08 13:09:00,
2013-07-08 09:14:00,77.9,62.6,29.15,West,270,1.3,2.5,59,0.00,,,0.00,WUHU216WMR100,2013-07-08 13:14:00,
2013-07-08 09:21:00,77.9,60.6,29.15,WNW,292,1.9,3.8,55,0.00,,,0.00,WUHU216WMR100,2013-07-08 13:21:00,
2013-07-08 09:26:00,77.5,60.2,29.15,West,270,0.7,3.8,55,0.00,,,0.00,WUHU216WMR100,2013-07-08 13:26:00,
2013-07-08 09:31:00,79.0,62.2,29.15,West,270,1.3,2.7,56,0.00,,,0.00,WUHU216WMR100,2013-07-08 13:31:00,
2013-07-08 09:37:00,80.2,62.2,29.15,WNW,292,0.0,3.1,54,0.00,,,0.00,WUHU216WMR100,2013-07-08 13:37:00,
2013-07-08 09:42:00,79.5,59.9,29.15,WSW,253,2.6,5.4,51,0.00,,,0.00,WUHU216WMR100,2013-07-08 13:42:00,
2013-07-08 09:48:00,80.2,61.1,29.15,NNW,337,1.3,5.4,52,0.00,,,0.00,WUHU216WMR100,2013-07-08 13:48:00,
2013-07-08 09:53:00,81.3,61.0,29.15,SSW,202,2.7,4.9,50,0.00,,,0.00,WUHU216WMR100,2013-07-08 13:53:00,
2013-07-08 09:54:00,81.3,61.0,29.15,SSW,202,2.7,4.9,50,0.00,,,0.00,WUHU216WMR100,2013-07-08 13:54:00,
2013-07-08 09:59:00,80.2,59.4,29.15,SSW,202,3.6,4.9,49,0.00,,,0.00,WUHU216WMR100,2013-07-08 13:59:00,
2013-07-08 10:03:00,80.1,60.5,29.15,NNW,337,2.2,4.9,51,0.00,,,0.00,WUHU216WMR100,2013-07-08 14:03:00,
2013-07-08 10:09:00,81.0,60.1,29.15,WSW,250,3.1,5.6,49,0.00,,,0.00,WUHU216WMR100,2013-07-08 14:09:00,
2013-07-08 10:14:00,81.3,59.8,29.15,SSW,202,4.7,7.2,48,0.00,,,0.00,WUHU216WMR100,2013-07-08 14:14:00,
2013-07-08 10:19:00,81.9,61.0,29.12,West,260,2.7,7.2,49,0.00,,,0.00,WUHU216WMR100,2013-07-08 14:19:00,
2013-07-08 10:24:00,83.1,61.5,29.12,WNW,292,3.1,6.0,48,0.00,,,0.00,WUHU216WMR100,2013-07-08 14:24:00,
2013-07-08 10:29:00,82.0,59.2,29.12,SSE,157,3.1,6.0,46,0.00,,,0.00,WUHU216WMR100,2013-07-08 14:29:00,
2013-07-08 10:34:00,83.3,61.0,29.12,WNW,298,1.5,5.4,47,0.00,,,0.00,WUHU216WMR100,2013-07-08 14:34:00,
2013-07-08 10:39:00,83.3,60.4,29.12,SSW,202,3.1,5.6,46,0.00,,,0.00,WUHU216WMR100,2013-07-08 14:39:00,
2013-07-08 10:44:00,81.3,58.6,29.12,WSW,247,3.4,5.6,46,0.00,,,0.00,WUHU216WMR100,2013-07-08 14:44:00,
2013-07-08 10:49:00,82.9,60.7,29.12,West,270,0.8,5.6,47,0.00,,,0.00,WUHU216WMR100,2013-07-08 14:49:00,
2013-07-08 10:54:00,82.4,59.0,29.12,West,278,3.5,6.3,45,0.00,,,0.00,WUHU216WMR100,2013-07-08 14:54:00,
2013-07-08 10:59:00,83.5,60.6,29.12,WNW,292,2.5,6.3,46,0.00,,,0.00,WUHU216WMR100,2013-07-08 14:59:00,
2013-07-08 11:04:00,83.3,60.4,29.12,West,270,2.9,4.9,46,0.00,,,0.00,WUHU216WMR100,2013-07-08 15:04:00,
2013-07-08 11:09:00,84.2,60.6,29.12,WSW,239,2.7,5.6,45,0.00,,,0.00,WUHU216WMR100,2013-07-08 15:09:00,
2013-07-08 11:14:00,84.2,60.6,29.12,SSW,212,2.7,5.6,45,0.00,,,0.00,WUHU216WMR100,2013-07-08 15:14:00,
2013-07-08 11:19:00,85.8,60.7,29.12,West,265,2.0,4.0,43,0.00,,,0.00,WUHU216WMR100,2013-07-08 15:19:00,
2013-07-08 11:24:00,86.2,59.7,29.12,SSW,202,3.6,5.6,41,0.00,,,0.00,WUHU216WMR100,2013-07-08 15:24:00,
2013-07-08 11:29:00,86.2,60.4,29.12,SW,225,3.1,5.8,42,0.00,,,0.00,WUHU216WMR100,2013-07-08 15:29:00,
2013-07-08 11:34:00,84.7,59.7,29.12,West,270,2.2,5.8,43,0.00,,,0.00,WUHU216WMR100,2013-07-08 15:34:00,
2013-07-08 11:39:00,84.9,60.6,29.12,North,357,2.0,6.0,44,0.00,,,0.00,WUHU216WMR100,2013-07-08 15:39:00,
2013-07-08 11:44:00,86.5,61.4,29.12,SW,225,2.5,6.0,43,0.00,,,0.00,WUHU216WMR100,2013-07-08 15:44:00,
2013-07-08 11:49:00,87.6,61.7,29.12,SW,225,3.4,4.9,42,0.00,,,0.00,WUHU216WMR100,2013-07-08 15:49:00,
2013-07-08 11:54:00,86.5,60.7,29.12,SSE,157,2.9,4.9,42,0.00,,,0.00,WUHU216WMR100,2013-07-08 15:54:00,
2013-07-08 11:59:00,87.3,61.4,29.12,SW,231,3.2,4.0,42,0.00,,,0.00,WUHU216WMR100,2013-07-08 15:59:00,
2013-07-08 12:04:00,88.0,60.6,29.12,WNW,285,2.4,7.8,40,0.00,,,0.00,WUHU216WMR100,2013-07-08 16:04:00,
2013-07-08 12:09:00,86.2,59.7,29.12,WNW,291,2.4,7.8,41,0.00,,,0.00,WUHU216WMR100,2013-07-08 16:09:00,
2013-07-08 12:14:00,86.5,60.7,29.12,SW,218,3.5,7.8,42,0.00,,,0.00,WUHU216WMR100,2013-07-08 16:14:00,
2013-07-08 12:19:00,87.4,60.8,29.12,South,185,3.0,7.8,41,0.00,,,0.00,WUHU216WMR100,2013-07-08 16:19:00,
2013-07-08 12:24:00,88.2,61.5,29.12,SSE,162,1.9,7.8,41,0.00,,,0.00,WUHU216WMR100,2013-07-08 16:24:00,
2013-07-08 12:29:00,88.0,60.6,29.12,NW,313,3.2,4.9,40,0.00,,,0.00,WUHU216WMR100,2013-07-08 16:29:00,
2013-07-08 12:38:00,88.3,61.6,29.12,SW,235,2.6,4.9,41,0.00,,,0.00,WUHU216WMR100,2013-07-08 16:38:00,
2013-07-08 12:43:00,87.4,60.8,29.12,WNW,291,2.3,5.6,41,0.00,,,0.00,WUHU216WMR100,2013-07-08 16:43:00,
2013-07-08 12:48:00,88.3,60.9,29.12,WNW,292,2.9,4.3,40,0.00,,,0.00,WUHU216WMR100,2013-07-08 16:48:00,
2013-07-08 12:53:00,89.4,61.1,29.12,SSW,203,3.2,4.7,39,0.00,,,0.00,WUHU216WMR100,2013-07-08 16:53:00,
2013-07-08 12:59:00,89.4,61.1,29.12,SSW,212,2.4,4.9,39,0.00,,,0.00,WUHU216WMR100,2013-07-08 16:59:00,
2013-07-08 13:04:00,88.7,60.5,29.12,SSW,202,2.7,4.9,39,0.00,,,0.00,WUHU216WMR100,2013-07-08 17:04:00,
2013-07-08 13:09:00,90.0,60.9,29.12,North,0,2.7,4.7,38,0.00,,,0.00,WUHU216WMR100,2013-07-08 17:09:00,
2013-07-08 13:14:00,89.2,60.2,29.12,NNW,337,3.6,6.5,38,0.00,,,0.00,WUHU216WMR100,2013-07-08 17:14:00,
2013-07-08 13:20:00,89.4,61.1,29.12,West,281,2.4,6.5,39,0.00,,,0.00,WUHU216WMR100,2013-07-08 17:20:00,
2013-07-08 13:25:00,90.3,60.4,29.12,NW,311,3.3,6.3,37,0.00,,,0.00,WUHU216WMR100,2013-07-08 17:25:00,
2013-07-08 13:30:00,91.4,61.4,29.12,WSW,257,2.7,6.3,37,0.00,,,0.00,WUHU216WMR100,2013-07-08 17:30:00,
2013-07-08 13:35:00,90.9,59.4,29.12,West,262,3.5,6.3,35,0.00,,,0.00,WUHU216WMR100,2013-07-08 17:35:00,
2013-07-08 13:40:00,91.9,58.6,29.12,WSW,247,3.1,6.3,33,0.00,,,0.00,WUHU216WMR100,2013-07-08 17:40:00,
2013-07-08 13:45:00,90.9,60.2,29.12,West,271,2.5,4.9,36,0.00,,,0.00,WUHU216WMR100,2013-07-08 17:45:00,
2013-07-08 13:50:00,89.1,60.1,29.12,WNW,292,2.7,4.9,38,0.00,,,0.00,WUHU216WMR100,2013-07-08 17:50:00,
2013-07-08 13:55:00,91.0,61.1,29.12,SW,225,1.6,4.7,37,0.00,,,0.00,WUHU216WMR100,2013-07-08 17:55:00,
2013-07-08 14:00:00,90.7,60.0,29.12,North,0,3.4,5.4,36,0.00,,,0.00,WUHU216WMR100,2013-07-08 18:00:00,
2013-07-08 14:05:00,91.9,59.4,29.12,NW,314,4.0,6.3,34,0.00,,,0.00,WUHU216WMR100,2013-07-08 18:05:00,
2013-07-08 14:10:00,91.2,59.6,29.12,SW,236,3.0,6.3,35,0.00,,,0.00,WUHU216WMR100,2013-07-08 18:10:00,
2013-07-08 14:16:00,92.7,61.0,29.12,WSW,247,1.6,4.3,35,0.00,,,0.00,WUHU216WMR100,2013-07-08 18:16:00,
2013-07-08 14:21:00,92.3,58.1,29.12,SW,228,3.0,6.3,32,0.00,,,0.00,WUHU216WMR100,2013-07-08 18:21:00,
2013-07-08 14:26:00,90.0,57.8,29.12,SSW,198,4.3,6.7,34,0.00,,,0.00,WUHU216WMR100,2013-07-08 18:26:00,
2013-07-08 14:31:00,92.1,60.4,29.12,WSW,247,2.2,6.7,35,0.00,,,0.00,WUHU216WMR100,2013-07-08 18:31:00,
2013-07-08 14:36:00,92.3,59.8,29.12,WNW,292,1.3,8.5,34,0.00,,,0.00,WUHU216WMR100,2013-07-08 18:36:00,
2013-07-08 14:41:00,93.9,62.0,29.12,West,270,0.9,8.5,35,0.00,,,0.00,WUHU216WMR100,2013-07-08 18:41:00,
2013-07-08 14:46:00,93.4,59.0,29.12,SSW,212,3.4,4.9,32,0.00,,,0.00,WUHU216WMR100,2013-07-08 18:46:00,
2013-07-08 14:54:00,91.2,56.2,29.09,SSE,166,2.9,5.4,31,0.00,,,0.00,WUHU216WMR100,2013-07-08 18:54:00,
2013-07-08 14:59:00,91.2,57.1,29.09,SSW,202,4.7,7.2,32,0.00,,,0.00,WUHU216WMR100,2013-07-08 18:59:00,
2013-07-08 15:04:00,90.9,58.6,29.09,East,87,3.0,7.2,34,0.00,,,0.00,WUHU216WMR100,2013-07-08 19:04:00,
2013-07-08 15:09:00,91.9,58.6,29.09,WNW,292,2.5,6.7,33,0.00,,,0.00,WUHU216WMR100,2013-07-08 19:09:00,
2013-07-08 15:14:00,92.7,57.5,29.09,West,270,4.7,7.4,31,0.00,,,0.00,WUHU216WMR100,2013-07-08 19:14:00,
2013-07-08 15:21:00,93.4,56.3,29.09,SSW,202,2.9,7.4,29,0.00,,,0.00,WUHU216WMR100,2013-07-08 19:21:00,
2013-07-08 15:26:00,92.8,57.6,29.09,SSW,203,3.2,6.0,31,0.00,,,0.00,WUHU216WMR100,2013-07-08 19:26:00,
2013-07-08 15:31:00,92.8,58.5,29.09,South,183,4.1,6.9,32,0.00,,,0.00,WUHU216WMR100,2013-07-08 19:31:00,
2013-07-08 15:37:00,91.6,57.5,29.06,SSE,157,2.5,6.9,32,0.00,,,0.00,WUHU216WMR100,2013-07-08 19:37:00,
2013-07-08 15:42:00,91.4,59.0,29.06,SSE,162,1.9,4.5,34,0.00,,,0.00,WUHU216WMR100,2013-07-08 19:42:00,
2013-07-08 15:47:00,91.6,59.2,29.06,South,183,1.7,4.5,34,0.00,,,0.00,WUHU216WMR100,2013-07-08 19:47:00,
2013-07-08 15:52:00,92.8,60.2,29.09,West,270,2.8,6.0,34,0.00,,,0.00,WUHU216WMR100,2013-07-08 19:52:00,
2013-07-08 15:57:00,91.2,58.0,29.09,WNW,292,1.6,6.0,33,0.00,,,0.00,WUHU216WMR100,2013-07-08 19:57:00,
2013-07-08 16:02:00,91.0,59.5,29.09,WSW,247,1.4,5.8,35,0.00,,,0.00,WUHU216WMR100,2013-07-08 20:02:00,
2013-07-08 16:07:00,90.7,59.2,29.09,NW,315,3.4,5.8,35,0.00,,,0.00,WUHU216WMR100,2013-07-08 20:07:00,
2013-07-08 16:13:00,92.7,59.3,29.09,WSW,246,3.3,6.0,33,0.00,,,0.00,WUHU216WMR100,2013-07-08 20:13:00,
2013-07-08 16:18:00,90.7,57.5,29.09,West,263,4.1,7.4,33,0.00,,,0.00,WUHU216WMR100,2013-07-08 20:18:00,
2013-07-08 16:24:00,89.2,58.7,29.09,NW,321,1.9,7.4,36,0.00,,,0.00,WUHU216WMR100,2013-07-08 20:24:00,
2013-07-08 16:29:00,90.1,60.3,29.09,WSW,256,2.4,6.0,37,0.00,,,0.00,WUHU216WMR100,2013-07-08 20:29:00,
2013-07-08 16:34:00,90.9,59.4,29.09,NW,315,2.7,6.3,35,0.00,,,0.00,WUHU216WMR100,2013-07-08 20:34:00,
2013-07-08 16:39:00,91.2,58.8,29.09,WNW,287,3.7,8.5,34,0.00,,,0.00,WUHU216WMR100,2013-07-08 20:39:00,
2013-07-08 16:44:00,90.1,57.9,29.09,WSW,247,2.7,8.5,34,0.00,,,0.00,WUHU216WMR100,2013-07-08 20:44:00,
2013-07-08 16:50:00,90.5,59.0,29.09,WSW,244,2.4,6.0,35,0.00,,,0.00,WUHU216WMR100,2013-07-08 20:50:00,
2013-07-08 16:55:00,88.9,59.2,29.09,WSW,247,3.1,5.8,37,0.00,,,0.00,WUHU216WMR100,2013-07-08 20:55:00,
2013-07-08 17:01:00,88.2,59.3,29.09,SSW,202,2.5,5.8,38,0.00,,,0.00,WUHU216WMR100,2013-07-08 21:01:00,
2013-07-08 17:11:00,86.5,59.3,29.09,SSE,157,3.6,7.2,40,0.00,,,0.00,WUHU216WMR100,2013-07-08 21:11:00,
2013-07-08 17:17:00,86.2,59.7,29.09,South,180,2.2,6.5,41,0.00,,,0.00,WUHU216WMR100,2013-07-08 21:17:00,
2013-07-08 17:22:00,85.6,60.6,29.09,West,267,2.3,4.9,43,0.00,,,0.00,WUHU216WMR100,2013-07-08 21:22:00,
2013-07-08 17:27:00,85.8,60.7,29.09,West,278,2.0,4.9,43,0.00,,,0.00,WUHU216WMR100,2013-07-08 21:27:00,
2013-07-08 17:32:00,85.6,60.6,29.09,NNW,337,1.3,4.3,43,0.00,,,0.00,WUHU216WMR100,2013-07-08 21:32:00,
2013-07-08 17:38:00,85.1,60.8,29.09,WNW,292,2.9,6.3,44,0.00,,,0.00,WUHU216WMR100,2013-07-08 21:38:00,
2013-07-08 17:44:00,84.9,60.6,29.09,West,279,2.0,6.3,44,0.00,,,0.00,WUHU216WMR100,2013-07-08 21:44:00,
2013-07-08 17:49:00,84.6,61.0,29.06,WSW,237,1.8,3.8,45,0.00,,,0.00,WUHU216WMR100,2013-07-08 21:49:00,
2013-07-08 17:55:00,83.8,61.5,29.06,SSE,165,1.6,3.8,47,0.00,,,0.00,WUHU216WMR100,2013-07-08 21:55:00,
2013-07-08 18:00:00,83.7,62.0,29.06,WSW,247,1.7,5.6,48,0.00,,,0.00,WUHU216WMR100,2013-07-08 22:00:00,
2013-07-08 18:05:00,83.3,62.9,29.06,WSW,238,3.5,7.2,50,0.00,,,0.00,WUHU216WMR100,2013-07-08 22:05:00,
2013-07-08 18:10:00,83.3,63.4,29.06,SSE,157,1.6,7.2,51,0.00,,,0.00,WUHU216WMR100,2013-07-08 22:10:00,
2013-07-08 18:15:00,82.6,63.4,29.06,SSW,210,3.4,5.8,52,0.00,,,0.00,WUHU216WMR100,2013-07-08 22:15:00,
2013-07-08 18:20:00,82.8,63.5,29.06,SSE,157,1.1,7.4,52,0.00,,,0.00,WUHU216WMR100,2013-07-08 22:20:00,
2013-07-08 18:25:00,82.8,64.1,29.06,WNW,285,1.6,7.4,53,0.00,,,0.00,WUHU216WMR100,2013-07-08 22:25:00,
2013-07-08 18:31:00,82.4,63.7,29.06,West,261,2.9,5.4,53,0.00,,,0.00,WUHU216WMR100,2013-07-08 22:31:00,
2013-07-08 18:36:00,82.6,64.5,29.06,WSW,237,2.6,5.4,54,0.00,,,0.00,WUHU216WMR100,2013-07-08 22:36:00,
2013-07-08 18:41:00,82.6,63.9,29.06,WSW,247,2.7,4.9,53,0.00,,,0.00,WUHU216WMR100,2013-07-08 22:41:00,
2013-07-08 18:46:00,82.6,64.5,29.06,NW,315,2.0,4.9,54,0.00,,,0.00,WUHU216WMR100,2013-07-08 22:46:00,
2013-07-08 18:52:00,82.2,64.6,29.09,WSW,243,2.3,4.0,55,0.00,,,0.00,WUHU216WMR100,2013-07-08 22:52:00,
2013-07-08 18:57:00,81.9,64.3,29.09,WSW,245,2.3,4.9,55,0.00,,,0.00,WUHU216WMR100,2013-07-08 22:57:00,
2013-07-08 19:02:00,82.0,65.0,29.09,West,270,1.3,4.9,56,0.00,,,0.00,WUHU216WMR100,2013-07-08 23:02:00,
2013-07-08 19:07:00,81.7,64.2,29.09,WSW,247,2.9,5.8,55,0.00,,,0.00,WUHU216WMR100,2013-07-08 23:07:00,
2013-07-08 19:12:00,81.5,64.5,29.09,WNW,292,2.5,5.8,56,0.00,,,0.00,WUHU216WMR100,2013-07-08 23:12:00,
2013-07-08 19:17:00,81.3,64.8,29.09,WNW,292,1.3,4.3,57,0.00,,,0.00,WUHU216WMR100,2013-07-08 23:17:00,
2013-07-08 19:22:00,81.0,64.5,29.09,WNW,292,2.7,4.3,57,0.00,,,0.00,WUHU216WMR100,2013-07-08 23:22:00,
2013-07-08 19:27:00,80.8,64.4,29.09,WSW,247,2.0,4.3,57,0.00,,,0.00,WUHU216WMR100,2013-07-08 23:27:00,
2013-07-08 19:32:00,80.4,64.5,29.09,SW,235,2.2,4.3,58,0.00,,,0.00,WUHU216WMR100,2013-07-08 23:32:00,
2013-07-08 19:38:00,80.1,63.7,29.09,NW,315,1.4,5.4,57,0.00,,,0.00,WUHU216WMR100,2013-07-08 23:38:00,
2013-07-08 19:43:00,79.9,63.5,29.09,NW,315,0.0,5.4,57,0.00,,,0.00,WUHU216WMR100,2013-07-08 23:43:00,
2013-07-08 19:48:00,79.7,63.3,29.09,WSW,247,1.1,3.4,57,0.00,,,0.00,WUHU216WMR100,2013-07-08 23:48:00,
2013-07-08 19:54:00,79.3,63.5,29.09,WSW,246,2.3,3.4,58,0.00,,,0.00,WUHU216WMR100,2013-07-08 23:54:00,
2013-07-08 19:59:00,79.2,63.4,29.09,WSW,244,1.7,5.4,58,0.00,,,0.00,WUHU216WMR100,2013-07-08 23:59:00,
2013-07-08 20:04:00,78.8,63.5,29.09,NW,315,2.7,5.4,59,0.00,,,0.00,WUHU216WMR100,2013-07-09 00:04:00,
2013-07-08 20:09:00,78.6,63.8,29.09,SSW,202,2.2,3.1,60,0.00,,,0.00,WUHU216WMR100,2013-07-09 00:09:00,
2013-07-08 20:15:00,78.4,63.6,29.09,West,270,1.6,3.8,60,0.00,,,0.00,WUHU216WMR100,2013-07-09 00:15:00,
2013-07-08 20:20:00,78.4,64.1,29.09,West,270,0.9,3.8,61,0.00,,,0.00,WUHU216WMR100,2013-07-09 00:20:00,
2013-07-08 20:26:00,78.3,64.0,29.09,NW,315,0.2,2.2,61,0.00,,,0.00,WUHU216WMR100,2013-07-09 00:26:00,
2013-07-08 20:31:00,78.1,64.3,29.09,WNW,292,1.5,3.6,62,0.00,,,0.00,WUHU216WMR100,2013-07-09 00:31:00,
2013-07-08 20:36:00,77.7,64.3,29.09,WSW,247,2.0,3.6,63,0.00,,,0.00,WUHU216WMR100,2013-07-09 00:36:00,
2013-07-08 20:41:00,77.2,64.3,29.09,SW,217,2.0,3.4,64,0.00,,,0.00,WUHU216WMR100,2013-07-09 00:41:00,
2013-07-08 20:46:00,76.8,64.8,29.09,WSW,247,1.3,3.6,66,0.00,,,0.00,WUHU216WMR100,2013-07-09 00:46:00,
2013-07-08 20:51:00,76.5,65.4,29.09,NNW,337,2.7,3.6,68,0.00,,,0.00,WUHU216WMR100,2013-07-09 00:51:00,
2013-07-08 20:56:00,75.6,64.9,29.09,NNW,337,4.9,7.8,69,0.00,,,0.00,WUHU216WMR100,2013-07-09 00:56:00,
2013-07-08 21:01:00,74.7,64.5,29.09,NNW,334,3.8,7.8,70,0.00,,,0.00,WUHU216WMR100,2013-07-09 01:01:00,
2013-07-08 21:06:00,73.4,64.0,29.09,NW,314,3.6,7.6,72,0.00,,,0.00,WUHU216WMR100,2013-07-09 01:06:00,
2013-07-08 21:12:00,72.9,64.3,29.09,NNW,337,2.7,7.6,74,0.00,,,0.00,WUHU216WMR100,2013-07-09 01:12:00,
2013-07-08 21:17:00,72.3,64.1,29.09,North,0,1.6,5.6,75,0.00,,,0.00,WUHU216WMR100,2013-07-09 01:17:00,
2013-07-08 21:22:00,72.0,64.2,29.09,NNW,337,2.1,4.5,76,0.00,,,0.00,WUHU216WMR100,2013-07-09 01:22:00,
2013-07-08 21:28:00,71.8,64.3,29.09,NNW,337,0.9,3.6,77,0.00,,,0.00,WUHU216WMR100,2013-07-09 01:28:00,
2013-07-08 21:33:00,71.6,64.5,29.12,NNW,337,0.0,3.1,78,0.00,,,0.00,WUHU216WMR100,2013-07-09 01:33:00,
2013-07-08 21:38:00,71.2,65.1,29.12,North,9,3.6,5.8,81,0.00,,,0.00,WUHU216WMR100,2013-07-09 01:38:00,
2013-07-08 21:43:00,71.2,65.5,29.12,NNW,337,2.9,5.8,82,0.00,,,0.00,WUHU216WMR100,2013-07-09 01:43:00,
2013-07-08 21:48:00,71.1,65.4,29.12,NNW,337,1.3,3.8,82,0.00,,,0.00,WUHU216WMR100,2013-07-09 01:48:00,
2013-07-08 21:53:00,70.9,65.5,29.12,ENE,67,2.3,5.4,83,0.00,,,0.00,WUHU216WMR100,2013-07-09 01:53:00,
2013-07-08 21:59:00,70.5,65.5,29.12,NNW,337,2.3,5.4,84,0.04,,,0.04,WUHU216WMR100,2013-07-09 01:59:00,
2013-07-08 22:03:00,70.3,65.9,29.12,NW,305,2.6,4.0,86,0.04,,,0.04,WUHU216WMR100,2013-07-09 02:03:00,
2013-07-08 22:04:00,70.2,65.8,29.12,North,0,2.9,4.0,86,0.04,,,0.04,WUHU216WMR100,2013-07-09 02:04:00,
2013-07-08 22:06:00,70.2,65.8,29.12,North,0,2.3,3.4,86,0.04,,,0.04,WUHU216WMR100,2013-07-09 02:06:00,
2013-07-08 22:11:00,69.8,65.4,29.12,NW,315,2.0,3.4,86,0.04,,,0.04,WUHU216WMR100,2013-07-09 02:11:00,
2013-07-08 22:24:00,69.4,65.7,29.12,North,0,2.0,3.8,88,0.13,,,0.13,WUHU216WMR100,2013-07-09 02:24:00,
2013-07-08 22:29:00,69.4,66.3,29.12,East,90,2.2,3.4,90,0.13,,,0.13,WUHU216WMR100,2013-07-09 02:29:00,
2013-07-08 22:34:00,69.4,66.3,29.12,NNW,347,2.7,4.3,90,0.00,,,0.13,WUHU216WMR100,2013-07-09 02:34:00,
2013-07-08 22:39:00,69.3,66.2,29.12,NNW,337,0.0,4.3,90,0.04,,,0.17,WUHU216WMR100,2013-07-09 02:39:00,
2013-07-08 22:44:00,69.3,66.2,29.12,NNW,337,1.1,4.3,90,0.04,,,0.17,WUHU216WMR100,2013-07-09 02:44:00,
2013-07-08 22:49:00,69.3,66.2,29.12,NNW,337,0.5,2.5,90,0.04,,,0.17,WUHU216WMR100,2013-07-09 02:49:00,
2013-07-08 22:55:00,69.3,66.5,29.12,NNW,337,0.0,1.3,91,0.04,,,0.17,WUHU216WMR100,2013-07-09 02:55:00,
2013-07-08 23:01:00,69.3,66.5,29.12,NNW,337,0.6,2.2,91,0.04,,,0.17,WUHU216WMR100,2013-07-09 03:01:00,
2013-07-08 23:06:00,69.3,66.5,29.12,WNW,292,0.0,2.9,91,0.04,,,0.17,WUHU216WMR100,2013-07-09 03:06:00,
2013-07-08 23:11:00,69.3,66.5,29.12,WNW,292,0.0,0.9,91,0.04,,,0.17,WUHU216WMR100,2013-07-09 03:11:00,
2013-07-08 23:16:00,69.3,66.5,29.12,WNW,292,0.0,0.0,91,0.04,,,0.17,WUHU216WMR100,2013-07-09 03:16:00,
2013-07-08 23:22:00,69.4,66.6,29.12,WNW,292,0.0,0.9,91,0.04,,,0.17,WUHU216WMR100,2013-07-09 03:22:00,
2013-07-08 23:27:00,69.4,66.6,29.12,West,270,0.0,3.1,91,0.04,,,0.17,WUHU216WMR100,2013-07-09 03:27:00,
2013-07-08 23:32:00,69.4,66.9,29.12,WNW,292,0.0,3.1,92,0.04,,,0.17,WUHU216WMR100,2013-07-09 03:32:00,
2013-07-08 23:37:00,69.4,66.9,29.12,WNW,292,0.0,1.3,92,0.00,,,0.17,WUHU216WMR100,2013-07-09 03:37:00,
2013-07-08 23:43:00,69.4,66.9,29.12,WNW,292,0.0,0.0,92,0.00,,,0.17,WUHU216WMR100,2013-07-09 03:43:00,
2013-07-08 23:48:00,69.4,66.9,29.12,WNW,292,0.0,0.0,92,0.00,,,0.17,WUHU216WMR100,2013-07-09 03:48:00,
2013-07-08 23:53:00,69.6,67.5,29.12,WNW,292,0.0,0.0,93,0.00,,,0.17,WUHU216WMR100,2013-07-09 03:53:00,
2013-07-08 23:58:00,69.4,66.9,29.12,WNW,292,0.0,0.0,92,0.00,,,0.17,WUHU216WMR100,2013-07-09 03:58:00,